AD8BV Weather Reports


time (UTC)temp
C
wind
direction
speed
KPH
gust
KPH
rain 1hr
cm
rain 24hr
cm
rain mn
cm
humidity
%
barometer
mb
20260503184224 17 295 4.8 11.3 0.00 0.00 0.00 45 1012.3
20260503183720 17 272 6.4 8.0 0.00 0.00 0.00 43 1012.4
20260503183217 17 233 4.8 9.7 0.00 0.00 0.00 44 1012.4
20260503182716 17 356 4.8 9.7 0.00 0.00 0.00 42 1012.6
20260503182214 17 286 1.6 3.2 0.00 0.00 0.00 44 1012.9
20260503181710 17 274 6.4 11.3 0.00 0.00 0.00 44 1012.7
20260503181207 17 282 6.4 9.7 0.00 0.00 0.00 46 1012.5
20260503180704 16 289 4.8 8.0 0.00 0.00 0.00 48 1012.8
20260503180202 16 114 4.8 4.8 0.00 0.00 0.00 47 1012.8
20260503175659 15 151 6.4 9.7 0.00 0.00 0.00 49 1013.0
20260503175156 15 85 1.6 3.2 0.00 0.00 0.00 50 1013.1
20260503174652 16 222 11.3 12.9 0.00 0.00 0.00 48 1013.4
20260503174150 17 260 8.0 9.7 0.00 0.00 0.00 45 1013.5
20260503173645 17 126 4.8 4.8 0.00 0.00 0.00 49 1013.3
20260503173141 16 283 4.8 8.0 0.00 0.00 0.00 47 1013.5
20260503172638 16 177 4.8 8.0 0.00 0.00 0.00 46 1013.7
20260503172136 16 275 1.6 3.2 0.00 0.00 0.00 47 1013.6
20260503171632 16 146 3.2 8.0 0.00 0.00 0.00 52 1013.5
20260503171129 16 237 4.8 8.0 0.00 0.00 0.00 51 1013.9
20260503170626 16 170 4.8 11.3 0.00 0.00 0.00 48 1013.7
20260503170123 16 174 4.8 8.0 0.00 0.00 0.00 49 1013.8
20260503151012 11 278 1.6 1.6 0.00 0.00 0.00 59 1015.0
20260503150509 11 163 4.8 8.0 0.00 0.00 0.00 56 1015.2
20260503131402 10 164 4.8 4.8 0.00 0.00 0.00 57 1015.3
20260503130859 10 296 3.2 3.2 0.00 0.00 0.00 56 1015.4
20260503130356 10 246 1.6 1.6 0.00 0.00 0.00 58 1015.2
20260503110750 4 252 1.6 1.6 0.00 0.00 0.00 73 1015.1
20260503110247 3 230 1.6 1.6 0.00 0.00 0.00 73 1015.2
20260503100213 3 302 1.6 1.6 0.00 0.00 0.00 73 1015.1
20260503090138 2 275 0.0 0.0 0.00 0.00 0.00 76 1016.0
20260503081608 0 279 0.0 0.0 0.00 0.00 0.00 92 1016.1
20260503081105 0 279 0.0 0.0 0.00 0.00 0.00 92 1016.1
20260503080601 0 279 0.0 0.0 0.00 0.00 0.00 93 1016.3
20260503072540 -1 276 0.0 0.0 0.00 0.00 0.00 93 1016.5
20260503072037 -1 276 0.0 0.0 0.00 0.00 0.00 93 1016.4
20260503071534 -1 276 0.0 0.0 0.00 0.00 0.00 93 1016.4
20260503071031 -1 276 0.0 0.0 0.00 0.00 0.00 93 1016.3
20260503070527 -1 276 0.0 0.0 0.00 0.00 0.00 93 1016.8
20260503054945 0 276 0.0 0.0 0.00 0.00 0.00 93 1017.4
20260503054442 0 276 0.0 0.0 0.00 0.00 0.00 93 1017.3
20260503053940 0 276 0.0 0.0 0.00 0.00 0.00 93 1017.5
20260503053437 0 276 0.0 0.0 0.00 0.00 0.00 93 1017.4
20260503052933 0 276 0.0 0.0 0.00 0.00 0.00 93 1017.4
20260503052432 0 276 0.0 0.0 0.00 0.00 0.00 93 1017.3
20260503051927 0 276 0.0 0.0 0.00 0.00 0.00 93 1017.4
20260503051423 0 276 0.0 0.0 0.00 0.00 0.00 93 1017.3
20260503050921 0 276 0.0 0.0 0.00 0.00 0.00 93 1017.5
20260503050416 0 276 0.0 0.0 0.00 0.00 0.00 92 1017.5
20260503045914 0 276 0.0 0.0 0.00 0.00 0.00 92 1017.5
20260503045411 0 276 0.0 0.0 0.00 0.00 0.00 92 1017.7
20260503044908 0 276 0.0 0.0 0.00 0.00 0.00 92 1017.6
20260503044405 0 276 0.0 0.0 0.00 0.00 0.00 92 1017.6
20260503043902 0 276 0.0 0.0 0.00 0.00 0.00 92 1017.8
20260503043359 0 276 0.0 0.0 0.00 0.00 0.00 91 1017.8
20260503042855 0 276 0.0 0.0 0.00 0.00 0.00 91 1017.7
20260503042352 0 276 0.0 0.0 0.00 0.00 0.00 91 1017.6
20260503041848 0 276 0.0 0.0 0.00 0.00 0.00 91 1017.5
20260503041345 0 276 0.0 0.0 0.00 0.00 0.00 90 1017.7
20260503040843 0 276 0.0 0.0 0.00 0.00 0.00 89 1017.5
20260503040341 0 276 0.0 0.0 0.00 0.00 0.00 89 1017.7
20260503035837 0 276 0.0 0.0 0.00 0.00 0.00 88 1017.8
20260503035334 0 276 0.0 0.0 0.00 0.00 0.00 88 1017.8
20260503034831 0 276 0.0 0.0 0.00 0.00 0.00 89 1017.8
20260503034328 0 276 0.0 0.0 0.00 0.00 0.00 88 1018.0
20260503033825 0 276 0.0 0.0 0.00 0.00 0.00 88 1017.9
20260503033323 0 276 0.0 0.0 0.00 0.00 0.00 88 1017.9
20260503032821 0 276 0.0 0.0 0.00 0.00 0.00 88 1017.9
20260503032320 0 276 0.0 0.0 0.00 0.00 0.00 87 1017.9
20260503031816 0 276 0.0 0.0 0.00 0.00 0.00 87 1017.9
20260503031315 0 276 0.0 0.0 0.00 0.00 0.00 87 1017.8
20260503030811 0 276 0.0 0.0 0.00 0.00 0.00 87 1017.9
20260503030307 0 276 0.0 0.0 0.00 0.00 0.00 86 1017.8
20260503025804 0 276 0.0 0.0 0.00 0.00 0.00 86 1017.9
20260503025301 0 276 0.0 0.0 0.00 0.00 0.00 84 1018.2
20260503024758 1 276 0.0 0.0 0.00 0.00 0.00 85 1017.9
20260503024255 1 276 0.0 0.0 0.00 0.00 0.00 84 1018.0
20260503023752 1 276 0.0 0.0 0.00 0.00 0.00 81 1018.3
20260503023249 1 276 0.0 0.0 0.00 0.00 0.00 79 1017.9
20260503022745 1 276 0.0 0.0 0.00 0.00 0.00 80 1018.1
20260503022240 1 276 0.0 0.0 0.00 0.00 0.00 80 1018.2
20260503021737 1 276 0.0 0.0 0.00 0.00 0.00 79 1018.1
20260503021233 1 276 0.0 0.0 0.00 0.00 0.00 79 1018.0
20260503020731 2 276 0.0 0.0 0.00 0.00 0.00 79 1018.3
20260503020228 2 276 0.0 0.0 0.00 0.00 0.00 76 1017.9
20260503015725 2 276 0.0 0.0 0.00 0.00 0.00 75 1017.9
20260503015221 2 276 0.0 0.0 0.00 0.00 0.00 73 1017.9
20260503014717 3 276 0.0 0.0 0.00 0.00 0.00 72 1018.0
20260503014216 3 276 0.0 0.0 0.00 0.00 0.00 68 1017.8
20260503013712 3 276 0.0 0.0 0.00 0.00 0.00 67 1017.9
20260503013210 3 276 0.0 0.0 0.00 0.00 0.00 65 1017.8
20260503012708 4 276 0.0 0.0 0.00 0.00 0.00 65 1017.9
20260503012204 4 277 0.0 1.6 0.00 0.00 0.00 62 1017.9
20260503011701 5 278 0.0 0.0 0.00 0.00 0.00 62 1017.7
20260503011158 5 278 0.0 0.0 0.00 0.00 0.00 61 1017.7
20260503010654 5 278 0.0 0.0 0.00 0.00 0.00 59 1017.6
20260503010151 5 278 0.0 0.0 0.00 0.00 0.00 58 1017.5
20260503005648 5 279 0.0 0.0 0.00 0.00 0.00 57 1017.6
20260503005145 5 285 0.0 0.0 0.00 0.00 0.00 57 1017.6
20260503004641 6 285 0.0 0.0 0.00 0.00 0.00 56 1017.5
20260503004140 6 279 0.0 0.0 0.00 0.00 0.00 54 1017.8
20260503003637 6 273 0.0 0.0 0.00 0.00 0.00 55 1017.4
20260503003134 6 283 0.0 0.0 0.00 0.00 0.00 55 1017.7
20260503002631 7 284 0.0 0.0 0.00 0.00 0.00 54 1017.5
20260503002127 7 286 0.0 0.0 0.00 0.00 0.00 54 1017.4
20260503001623 7 319 1.6 3.2 0.00 0.00 0.00 51 1017.5
20260503001121 7 291 0.0 0.0 0.00 0.00 0.00 50 1017.4
20260503000618 7 301 1.6 1.6 0.00 0.00 0.00 50 1017.3
20260503000115 8 303 1.6 1.6 0.00 0.00 0.00 50 1017.4
20260502235612 8 284 4.8 4.8 0.00 0.00 0.00 49 1017.5
20260502235110 8 281 1.6 3.2 0.00 0.00 0.00 51 1017.4
20260502234605 8 351 0.0 0.0 0.00 0.00 0.00 49 1017.5
20260502234104 8 272 0.0 0.0 0.00 0.00 0.00 51 1017.5
20260502233603 8 305 1.6 1.6 0.00 0.00 0.00 50 1017.6
20260502233101 8 281 1.6 1.6 0.00 0.00 0.00 49 1017.8
20260502232557 8 302 1.6 3.2 0.00 0.00 0.00 50 1017.6
20260502232054 8 301 1.6 1.6 0.00 0.00 0.00 49 1017.6
20260502231551 8 303 1.6 3.2 0.00 0.00 0.00 49 1017.6
20260502231049 9 257 4.8 4.8 0.00 0.00 0.00 45 1017.6
20260502230547 9 283 0.0 1.6 0.00 0.00 0.00 47 1017.7
20260502230045 8 297 0.0 0.0 0.00 0.00 0.00 49 1017.6
20260502225540 8 334 3.2 4.8 0.00 0.00 0.00 48 1017.6
20260502225038 8 349 1.6 3.2 0.00 0.00 0.00 48 1017.6
20260502224534 9 283 0.0 0.0 0.00 0.00 0.00 50 1017.6
20260502224031 9 272 1.6 1.6 0.00 0.00 0.00 48 1017.7
20260502223529 9 345 8.0 9.7 0.00 0.00 0.00 48 1017.7
20260502223027 9 277 0.0 1.6 0.00 0.00 0.00 49 1017.8
20260502222524 10 304 1.6 3.2 0.00 0.00 0.00 46 1017.8
20260502222021 9 234 3.2 3.2 0.00 0.00 0.00 49 1017.8
20260502221516 9 304 3.2 3.2 0.00 0.00 0.00 48 1017.6
20260502221014 9 278 1.6 1.6 0.00 0.00 0.00 46 1017.6
20260502220509 10 259 4.8 8.0 0.00 0.00 0.00 46 1017.7
20260502220006 10 242 1.6 3.2 0.00 0.00 0.00 48 1017.7
20260502215503 9 274 1.6 1.6 0.00 0.00 0.00 51 1017.7
20260502215000 8 29 3.2 3.2 0.00 0.00 0.00 48 1017.8
20260502214457 8 351 3.2 4.8 0.00 0.00 0.00 50 1017.7
20260502213954 8 310 1.6 1.6 0.00 0.00 0.00 51 1017.9
20260502213450 8 268 0.0 1.6 0.00 0.00 0.00 50 1017.7
20260502212949 8 242 1.6 3.2 0.00 0.00 0.00 51 1017.6
20260502212448 9 283 1.6 3.2 0.00 0.00 0.00 49 1017.8
20260502211944 9 267 1.6 3.2 0.00 0.00 0.00 51 1017.8
20260502211440 9 291 3.2 4.8 0.00 0.00 0.00 48 1017.9
20260502210938 10 308 0.0 0.0 0.00 0.00 0.00 51 1017.8
20260502210434 9 359 3.2 3.2 0.00 0.00 0.00 50 1017.9
20260502205932 9 228 0.0 3.2 0.00 0.00 0.00 49 1017.8
20260502205428 10 316 0.0 1.6 0.00 0.00 0.00 47 1017.8
20260502204925 10 322 3.2 3.2 0.00 0.00 0.00 47 1017.9
20260502204422 10 331 1.6 3.2 0.00 0.00 0.00 46 1018.1
20260502203920 9 308 1.6 3.2 0.00 0.00 0.00 51 1018.0
20260502203417 8 281 0.0 1.6 0.00 0.00 0.00 50 1018.2
20260502202912 8 218 3.2 3.2 0.00 0.00 0.00 55 1018.2
20260502202410 8 263 1.6 3.2 0.00 0.00 0.00 52 1018.2
20260502201908 8 302 3.2 3.2 0.00 0.00 0.00 51 1018.2
20260502201404 8 262 1.6 3.2 0.00 0.00 0.00 48 1018.2
20260502200901 8 341 4.8 4.8 0.00 0.00 0.00 49 1018.2
20260502200356 9 296 0.0 1.6 0.00 0.00 0.00 46 1018.4
20260502195854 8 326 1.6 3.2 0.00 0.00 0.00 49 1018.5
20260502195351 9 285 3.2 3.2 0.00 0.00 0.00 51 1018.6
20260502194848 9 289 3.2 3.2 0.00 0.00 0.00 45 1018.5
20260502194344 9 270 3.2 4.8 0.00 0.00 0.00 50 1018.7
20260502193840 9 298 1.6 1.6 0.00 0.00 0.00 48 1018.5
20260502193337 9 301 3.2 3.2 0.00 0.00 0.00 49 1018.8
20260502192833 8 263 1.6 1.6 0.00 0.00 0.00 51 1018.7
20260502192330 8 270 0.0 1.6 0.00 0.00 0.00 50 1018.7
20260502191827 8 340 3.2 3.2 0.00 0.00 0.00 48 1018.8
20260502191325 9 328 3.2 4.8 0.00 0.00 0.00 47 1018.9
20260502190822 9 28 3.2 4.8 0.00 0.00 0.00 48 1019.1
20260502190320 8 289 1.6 3.2 0.00 0.00 0.00 47 1019.3
20260502185815 8 194 4.8 8.0 0.00 0.00 0.00 50 1019.1
20260502185311 8 274 1.6 3.2 0.00 0.00 0.00 47 1019.1
20260502184808 8 307 1.6 3.2 0.00 0.00 0.00 51 1019.2